Abingdon, VA

9:03 AM EDT on September 26, 2017 (GMT -0400)
Virginia Highlands

Weather History for KVJI - November, 2013

Change the Weather History Date:

Friday, November 1, 2013

  Actual Average (KTRI) Record (KTRI)
Temperature  
Mean Temperature 61 °F -  
Max Temperature 70 °F 67 °F 82 °F (2016)
Min Temperature 52 °F 43 °F 26 °F (1993)
Degree Days  
Heating Degree Days 4    
Growing Degree Days 11 (Base 50)    
Moisture  
Dew Point 56 °F    
Average Humidity 78    
Maximum Humidity 100    
Minimum Humidity 45    
Precipitation  
Precipitation 0.40 in - - ()
Sea Level Pressure  
Sea Level Pressure 29.76 in    
Wind  
Wind Speed 11 mph (West)    
Max Wind Speed 22 mph    
Max Gust Speed 34 mph    
Visibility 10 miles    
Events Rain    
Averages and records for this station are not official NWS values.
T = Trace of Precipitation, MM = Missing Value Source: NWS Daily Summary

Daily Weather History Graph

Daily Weather History Graph

Search for Another Location

Airport or City:

Trip Planner

Search our weather history database for the weather conditions in past years. The results will help you decide how hot, cold, wet, or windy it might be!

Date:

Astronomy

Nov. 01, 2013 Rise Set
Actual Time 7:51 AM EDT 6:30 PM EDT
Civil Twilight 7:25 AM EDT 6:57 PM EDT
Nautical Twilight 6:54 AM EDT 7:28 PM EDT
Astronomical Twilight 6:24 AM EDT 7:58 PM EDT
Moon 5:45 AM EDT (11/1) 5:20 PM EDT (11/1)
Length of Visible Light 11h 32m
Length of Day
10h 38m
Waning Crescent, 4% of the Moon is Illuminated
Nov 1
Waning Crescent
Nov 3
New
Nov 10
First Quarter
Nov 17
Full
Nov 25
Last Quarter

Hourly Weather History & Observations

Time (EDT) Temp. Dew Point Humidity Pressure Visibility Wind Dir Wind Speed Gust Speed Precip Events Conditions
12:15 AM 70.0 °F 59.5 °F 69% 29.73 in 10.0 mi SW 16.1 mph 20.7 mph N/A   Clear
12:35 AM 69.8 °F 59.9 °F 71% 29.73 in 10.0 mi WSW 10.4 mph - N/A   Scattered Clouds
12:55 AM 70.0 °F 59.5 °F 69% 29.72 in 10.0 mi WSW 17.3 mph 24.2 mph N/A   Scattered Clouds
1:15 AM 70.7 °F 59.9 °F 69% 29.73 in 10.0 mi WSW 16.1 mph 25.3 mph N/A   Mostly Cloudy
1:35 AM 70.7 °F 60.3 °F 69% 29.72 in 10.0 mi WSW 16.1 mph 26.5 mph N/A Rain Light Rain
1:55 AM 70.7 °F 60.4 °F 70% 29.72 in 10.0 mi WSW 21.9 mph 31.1 mph N/A   Overcast
2:15 AM 70.3 °F 60.3 °F 70% 29.71 in 10.0 mi WSW 19.6 mph 27.6 mph N/A   Overcast
2:35 AM 70.5 °F 60.1 °F 69% 29.70 in 10.0 mi WSW 19.6 mph 34.5 mph N/A   Overcast
2:55 AM 70.3 °F 59.9 °F 69% 29.70 in 10.0 mi WSW 16.1 mph 23.0 mph N/A   Overcast
3:15 AM 70.3 °F 59.9 °F 69% 29.69 in 10.0 mi WSW 11.5 mph 24.2 mph N/A   Overcast
3:35 AM 70.0 °F 60.4 °F 72% 29.69 in 10.0 mi WSW 13.8 mph 21.9 mph N/A Rain Rain
3:55 AM 66.0 °F 63.0 °F 90% 29.71 in 5.0 mi West 15.0 mph 23.0 mph 0.03 in Rain Rain
4:15 AM 64.4 °F 63.7 °F 98% 29.71 in 10.0 mi West 9.2 mph - 0.01 in Rain Light Rain
4:35 AM 63.7 °F 63.7 °F 100% 29.69 in 10.0 mi West 8.1 mph - 0.01 in   Light Drizzle
4:55 AM 63.5 °F 63.5 °F 100% 29.69 in 10.0 mi West 3.5 mph - 0.01 in Rain Light Rain
5:15 AM 63.5 °F 63.5 °F 100% 29.70 in 10.0 mi NW 6.9 mph - 0.01 in Rain Light Rain
5:35 AM 63.5 °F 63.5 °F 100% 29.70 in 4.0 mi West 5.8 mph - 0.07 in Rain Rain
5:55 AM 63.5 °F 63.5 °F 100% 29.73 in 4.0 mi WNW 8.1 mph - 0.10 in Rain Rain
6:15 AM 63.5 °F 63.5 °F 100% 29.74 in 3.0 mi West 11.5 mph 18.4 mph 0.12 in Rain Heavy Rain
6:35 AM 61.9 °F 61.9 °F 100% 29.75 in 4.0 mi WNW 12.7 mph 27.6 mph 0.24 in Rain Rain
6:55 AM 60.8 °F 60.1 °F 97% 29.76 in 5.0 mi WNW 11.5 mph 19.6 mph 0.26 in Rain Rain
7:15 AM 60.6 °F 59.9 °F 97% 29.78 in 10.0 mi WSW 10.4 mph - N/A   Overcast
7:35 AM 59.9 °F 59.9 °F 100% 29.80 in 10.0 mi West 8.1 mph - N/A   Overcast
7:55 AM 59.5 °F 59.5 °F 100% 29.81 in 10.0 mi West 6.9 mph - N/A   Overcast
8:15 AM 59.7 °F 59.7 °F 100% 29.81 in 10.0 mi WSW 6.9 mph - N/A   Overcast
8:35 AM 59.9 °F 59.9 °F 100% 29.81 in 10.0 mi West 5.8 mph - N/A   Overcast
8:55 AM 60.1 °F 60.1 °F 100% 29.82 in 10.0 mi West 4.6 mph - N/A   Overcast
9:15 AM 60.4 °F 60.4 °F 100% 29.83 in 10.0 mi West 4.6 mph - N/A   Overcast
9:35 AM 60.8 °F 60.8 °F 100% 29.83 in 10.0 mi WSW 8.1 mph - N/A   Overcast
9:55 AM 61.0 °F 61.0 °F 100% 29.83 in 10.0 mi West 8.1 mph - N/A   Overcast
10:15 AM 61.0 °F 60.8 °F 99% 29.83 in 10.0 mi WNW 4.6 mph - N/A   Overcast
10:35 AM 62.2 °F 60.6 °F 94% 29.82 in 10.0 mi West 5.8 mph - N/A   Mostly Cloudy
10:55 AM 62.1 °F 59.0 °F 90% 29.81 in 10.0 mi WNW 9.2 mph - N/A   Overcast
11:15 AM 62.1 °F 59.4 °F 91% 29.81 in 10.0 mi WNW 6.9 mph - N/A   Mostly Cloudy
11:35 AM 63.9 °F 59.5 °F 86% 29.80 in 10.0 mi West 13.8 mph 19.6 mph N/A   Scattered Clouds
11:55 AM 64.8 °F 59.5 °F 83% 29.80 in 10.0 mi West 12.7 mph - N/A   Scattered Clouds
12:15 PM 67.1 °F 59.4 °F 76% 29.78 in 10.0 mi West 12.7 mph - N/A   Mostly Cloudy
12:35 PM 67.6 °F 58.3 °F 72% 29.78 in 10.0 mi West 15.0 mph 19.6 mph N/A   Mostly Cloudy
12:55 PM 68.4 °F 58.1 °F 70% 29.78 in 10.0 mi West 11.5 mph 21.9 mph N/A   Overcast
1:15 PM 68.9 °F 56.3 °F 64% 29.77 in 10.0 mi West 13.8 mph - N/A   Mostly Cloudy
1:35 PM 69.1 °F 55.0 °F 61% 29.76 in 10.0 mi West 13.8 mph 18.4 mph N/A   Mostly Cloudy
1:55 PM 69.1 °F 54.1 °F 59% 29.75 in 10.0 mi West 12.7 mph 19.6 mph N/A   Scattered Clouds
2:15 PM 69.3 °F 54.5 °F 59% 29.75 in 10.0 mi West 11.5 mph - N/A   Scattered Clouds
2:35 PM 69.8 °F 52.9 °F 55% 29.74 in 10.0 mi West 9.2 mph 17.3 mph N/A   Scattered Clouds
2:55 PM 69.4 °F 51.4 °F 53% 29.73 in 10.0 mi West 11.5 mph 16.1 mph N/A   Scattered Clouds
3:15 PM 69.8 °F 49.3 °F 48% 29.73 in 10.0 mi West 13.8 mph 18.4 mph N/A   Clear
3:35 PM 70.2 °F 50.9 °F 50% 29.73 in 10.0 mi WSW 10.4 mph 16.1 mph N/A   Clear
3:55 PM 69.8 °F 50.9 °F 51% 29.73 in 10.0 mi WSW 10.4 mph - N/A   Clear
4:15 PM 70.2 °F 49.5 °F 48% 29.72 in 10.0 mi West 12.7 mph - N/A   Clear
5:55 PM 67.3 °F 45.3 °F 45% 29.72 in 10.0 mi WNW 8.1 mph - N/A   Clear
6:15 PM 66.0 °F 45.7 °F 48% 29.73 in 10.0 mi WNW 9.2 mph - N/A   Clear
6:35 PM 64.8 °F 45.7 °F 50% 29.74 in 10.0 mi West 8.1 mph - N/A   Clear
6:55 PM 63.5 °F 46.0 °F 53% 29.75 in 10.0 mi WNW 6.9 mph - N/A   Clear
7:15 PM 62.4 °F 46.9 °F 57% 29.75 in 10.0 mi WNW 4.6 mph - N/A   Clear
7:35 PM 61.7 °F 47.3 °F 59% 29.76 in 10.0 mi Calm Calm - N/A   Clear
7:55 PM 61.3 °F 47.7 °F 61% 29.76 in 10.0 mi WNW 5.8 mph - N/A   Clear
8:15 PM 59.9 °F 48.4 °F 66% 29.77 in 10.0 mi WNW 3.5 mph - N/A   Clear
8:35 PM 59.5 °F 49.1 °F 68% 29.77 in 10.0 mi WNW 3.5 mph - N/A   Clear
8:55 PM 59.9 °F 49.3 °F 68% 29.78 in 10.0 mi Calm Calm - N/A   Clear
9:15 PM 58.1 °F 49.1 °F 72% 29.78 in 10.0 mi Calm Calm - N/A   Clear
9:35 PM 57.4 °F 48.4 °F 72% 29.78 in 10.0 mi Calm Calm - N/A   Clear
9:55 PM 54.9 °F 48.7 °F 80% 29.78 in 10.0 mi Calm Calm - N/A   Clear
10:15 PM 54.7 °F 49.6 °F 83% 29.79 in 10.0 mi West 3.5 mph - N/A   Clear
10:35 PM 53.4 °F 50.0 °F 88% 29.80 in 10.0 mi Calm Calm - N/A   Scattered Clouds
10:55 PM 53.8 °F 49.5 °F 85% 29.80 in 10.0 mi Calm Calm - N/A   Mostly Cloudy
11:15 PM 54.0 °F 50.0 °F 86% 29.81 in 10.0 mi Calm Calm - N/A   Scattered Clouds
11:35 PM 52.5 °F 50.0 °F 91% 29.81 in 10.0 mi Calm Calm - N/A   Mostly Cloudy
11:55 PM 52.2 °F 49.8 °F 92% 29.81 in 10.0 mi Calm Calm - N/A   Overcast